Regional Weather Roundup
Issued by NWS

Home | Current Version | Previous Version | Graphics & Text | Print | Product List | Glossary Off
Versions: 1 2 3 4 5 6 7 8 9 10 11 12 13 14 15 16 17 18 19 20 21 22 23 24 25 26 27 28 29 30 31 32 33 34 35 36 37 38 39 40 41 42 43 44 45 46 47 48 49 50

000
ASUS43 KMKX 010700
RWRWI

WISCONSIN REGIONAL WEATHER ROUNDUP
NATIONAL WEATHER SERVICE MILWAUKEE/SULLIVAN WI
200 AM CDT SUN MAY 01 2016

NOTE: "FAIR" INDICATES FEW OR NO CLOUDS BELOW 12,000 FEET WITH NO
SIGNIFICANT WEATHER AND/OR OBSTRUCTIONS TO VISIBILITY.

WIZ001-002-006>008-014>016-023>028-010800-
NORTHWEST WISCONSIN

CITY           SKY/WX    TMP DP  RH WIND       PRES   REMARKS
SUPERIOR ARPT  CLOUDY    38  29  71 NE7       30.23S WCI  32
ASHLAND        CLOUDY    36  33  89 NE9       30.21S WCI  29
HAYWARD        CLOUDY    36  31  82 N10       30.17S WCI  28
SIREN          CLOUDY    40  31  71 NE7       30.17F WCI  35
CUMBERLAND     CLOUDY    39  30  70 NE10      30.13S WCI  32
RICE LAKE      CLOUDY    42  31  65 NE12      30.14F
CHETEK         CLOUDY    43  32  64 NE10      30.12S
LADYSMITH      PTCLDY    41  31  68 NE8       30.14F
EAU CLAIRE     NOT AVBL
MENOMONIE      CLOUDY    47  33  57 N10       30.10S
NEW RICHMOND   CLOUDY    43  32  66 NE10      30.12S
OSCEOLA        CLOUDY    42  32  67 N5        30.16S
$$

WIZ003>005-009-010-017-018-010800-
NORTH CENTRAL WISCONSIN

CITY           SKY/WX    TMP DP  RH WIND       PRES   REMARKS
MANITOWISH WTR CLOUDY    36  34  92 NE7       30.14F WCI  31
ARBOR VITAE    PTCLDY    39  34  82 NE3       30.13F
WOODRUFF       PTCLDY    39  34  82 NE3       30.13F
RHINELANDER    PTCLDY    37  31  78 N3        30.12F
EAGLE RIVER    PTCLDY    35  30  83 N5        30.12F WCI  31
LAND O LAKES   CLOUDY    35  33  91 N7        30.14F WCI  29
PHILLIPS       PTCLDY    37  32  81 NE7       30.13F WCI  32
TOMAHAWK       CLOUDY    39  31  73 NE6       30.12F
MEDFORD        CLOUDY    42  31  66 NE12      30.08S
MERRILL        CLOUDY    43  30  61 NE8       30.10S
$$

WIZ029-030-035-036-043>047-010800-
CENTRAL WISCONSIN

CITY           SKY/WX    TMP DP  RH WIND       PRES   REMARKS
WAUSAU         CLOUDY    47  29  49 NE7       30.07S
MOSINEE        CLOUDY    45  30  57 NE12      30.08S
MARSHFIELD     CLOUDY    47  30  51 NE8       30.06S
STEVENS POINT  CLOUDY    45  29  54 NE14      30.07S
WAUPACA        LGT RAIN  48  32  54 NE7       30.06F
WAUTOMA        NOT AVBL
WISC RAPIDS    CLOUDY    48  30  49 NE9       30.07S
CAMP DOUGLAS   NOT AVBL
$$

WIZ011>013-019>022-031-037>040-048>050-010800-
NORTHEAST WISCONSIN

CITY           SKY/WX    TMP DP  RH WIND       PRES   REMARKS
ANTIGO         CLOUDY    41  32  69 NE12      30.09R
SHAWANO        CLOUDY    46  33  59 NE12      30.08S
OCONTO         CLOUDY    44  34  68 N8        30.08R
STURGEON BAY   CLOUDY    43  34  70 N8        30.09S
GREEN BAY      LGT RAIN  44  36  73 NE21      30.07S
MANITOWOC      NOT AVBL
APPLETON       CLOUDY    43  32  65 NE12G21   30.04F
CLINTONVILLE   DRIZZLE   45  32  61 NE7       30.08R
OSHKOSH        CLOUDY    44  37  76 NE16      30.03F
$$

WIZ032>034-041-042-053>061-010800-
SOUTHWEST WISCONSIN

CITY           SKY/WX    TMP DP  RH WIND       PRES   REMARKS
LA CROSSE      CLOUDY    45  40  82 N7        30.05F
SPARTA         CLOUDY    45  39  79 NE7       30.06S
VIROQUA        CLOUDY    42  39  89 NE9       30.02S
BOSCOBEL       CLOUDY    46  40  79 NE6       30.01S
PRAIRIE DU CHI CLOUDY    45  39  81 N5        30.00S
PLATTEVILLE    CLOUDY    44  43  96 NE14G20   29.97R
$$

WIZ056-057-062-063-064-067-068-010800-
SOUTH CENTRAL WISCONSIN

CITY           SKY/WX    TMP DP  RH WIND       PRES   REMARKS
REEDSBURG      CLOUDY    44  39  83 NE9       30.02F
BARABOO/DELLS  CLOUDY    42  39  88 NE8       30.02S
LONE ROCK      NOT AVBL
MINERAL POINT  CLOUDY    43  43 100 NE16      29.97S
MADISON        CLOUDY    44  40  85 NE13      29.99S
MIDDLETON      CLOUDY    45  42  88 NE10      29.99F
WATERTOWN      CLOUDY    44  44 100 NE12      29.98S
MONROE         CLOUDY    43  41  93 NE13      29.95R
JANESVILLE     CLOUDY    45  45 100 NE7       29.95S
$$

WIZ051-052-058>065-066-070>072-010800-
SOUTHEAST WISCONSIN

CITY           SKY/WX    TMP DP  RH WIND       PRES   REMARKS
MILWAUKEE      CLOUDY    43  41  93 NE15      29.98R
WAUKESHA       CLOUDY    43  41  93 NE13      29.98S
MILWAUKEE/TIMM CLOUDY    43  39  87 NE13G20   29.98F
RACINE         LGT RAIN  43  41  93 NE13      29.97S FOG
BURLINGTON     CLOUDY    42  42  99 NE10G16   29.96R FOG
KENOSHA        LGT RAIN  44  42  93 NE13G23   29.95R FOG
FOND DU LAC    CLOUDY    45  37  73 NE15      30.02F
SHEBOYGAN      CLOUDY    42  37  82 N13       30.01F
WEST BEND      DRIZZLE   41  39  93 NE8       29.99F
JUNEAU         CLOUDY    42  40  93 N12       30.01F
$$

LSZ147-162-010800-
LAKE SUPERIOR

STATION/POSITION TIME  TEMP    WIND        PRES    WAVE
                       AIR SEA DIR/SP/G            HT/PER
                 (UTC) (F)     (DEG/KT/KT) (MB)    (FT/S)
W MID LAKE BUOY  0550   39 37   30/ 12/ 12 1024.3S   1/ 4
DEVILS ISLAND    0600   40      50/ 14/ 15 1024.6R
PORT WING        0600   38      40/  8/  9 1023.7S
SAXON HARBOR     0640   39      50/  7/  8 1022.4S
$$

LMZ867-665-643>646-010800-
LAKE MICHIGAN

STATION/POSITION TIME  TEMP    WIND        PRES    WAVE
                       AIR SEA DIR/SP/G            HT/PER
                 (UTC) (F)     (DEG/KT/KT) (MB)    (FT/S)
CHAMBERS ISLAND  0640   42     360/ 11/ 14 1019.0S
N MID LAKE BUOY  0550   40 39   20/ 14/ 17 1018.4F   3/ 4
NORTHPORT PIER   0600   42     360/ 11/ 14 1018.3F
ALGOMA LAKESHORE 0615           50/ 17/ 24   N/A
KEWAUNEE LAKESHO 0600   42      20/  8/ 10 1017.7R
SHEBOYGAN LAKESH 0600   42      10/ 17/ 19 1017.6R
PORT WASHINGTON  0600   45      30/ 11/ 17 1016.9S
S MID LAKE BUOY  0550   43 40   60/ 14/ 16 1013.7F   3/ 4
KENOSHA   LAKESH 0600   43      40/ 17/ 19 1013.9F
$$

TC  - TEMPERATURE IN CELSIUS
VSB - VISIBILITY IN STATUTE MILES
WCI - WIND CHILL INDEX
HX  - HEAT INDEX





USA.gov is the U.S. government's official web portal to all federal, state and local government web resources and services.